Date_and_time,latitude,longitude,wind_speed,RelWindDirFrom,WindDirFrom,air_pressure,air_temperature,relative_humidity,Temp,platform_speed_wrt_ground,air_pressure_at_mean_sea_level,platform_orientation
2019-01-13 23:40,50.630455,-96.9807666666667,2.7,4.1,282,996.24,-5.9,86,0.75,0.0,1024.96,165.5
2019-01-13 23:50,50.6304583333333,-96.9807616666667,2.8,3.9,304,996.32,-5.8,86,0.74,0.0,1025.03,165.5
2019-01-14 00:00,50.6304416666667,-96.9807616666667,2.8,4.0,318,996.29,-5.7,85,0.75,0.0,1025.00,143.4
2019-01-14 00:00,50.6304416666667,-96.98076,2.4,2.4,326,996.29,-5.7,85,0.75,0.0,1025.01,360.0
2019-01-14 00:10,50.6304466666667,-96.9807633333333,2.3,3.2,339,996.28,-5.7,87,0.75,0.0,1025.00,360.0
2019-01-14 00:20,50.630445,-96.9807583333333,1.8,2.7,336,996.27,-5.7,88,0.75,0.0,1024.99,360.0
2019-01-14 00:30,50.6304533333333,-96.980765,1.8,2.6,351,996.16,-5.7,88,0.75,0.0,1024.88,360.0
2019-01-14 00:40,50.6304533333333,-96.9807583333333,1.1,2.6,350,996.04,-5.7,88,0.76,0.0,1024.75,360.0
2019-01-14 00:50,50.6304533333333,-96.98076,1.0,2.0,326,995.94,-5.7,87,0.77,0.0,1024.65,360.0
2019-01-14 01:00,50.6304516666667,-96.9807616666667,2.3,3.8,325,995.93,-5.8,86,0.77,0.0,1024.65,360.0
2019-01-14 01:10,50.6304533333333,-96.9807633333333,1.9,3.1,318,995.90,-5.8,85,0.78,0.0,1024.61,360.0
2019-01-14 01:20,50.6304533333333,-96.980765,0.9,2.7,316,995.82,-5.9,85,0.78,0.0,1024.53,360.0
2019-01-14 01:30,50.6304533333333,-96.9807616666667,0.2,1.3,141,995.62,-6.2,84,0.78,0.0,1024.33,360.0
2019-01-14 01:40,50.6304533333333,-96.9807616666667,1.5,3.8,318,995.83,-6.0,84,0.78,0.0,1024.54,360.0
2019-01-14 01:50,50.630455,-96.9807633333333,2.8,3.8,335,995.93,-5.8,86,0.78,0.0,1024.64,360.0
2019-01-14 02:00,50.630455,-96.980765,3.6,5.3,326,996.13,-5.9,86,0.78,0.0,1024.84,345.5
2019-01-14 02:10,50.6304583333333,-96.9807783333333,4.6,6.1,329,996.27,-5.9,87,0.77,0.0,1024.99,345.5
2019-01-14 02:20,50.6304566666667,-96.980765,3.6,5.1,321,996.37,-6.0,87,0.77,0.0,1025.09,345.5
2019-01-14 02:30,50.630455,-96.9807666666667,4.2,5.9,319,996.42,-6.0,87,0.78,0.0,1025.15,345.5
2019-01-14 02:40,50.6304633333333,-96.9807583333333,4.7,7.2,316,996.56,-6.0,87,0.77,0.0,1025.30,345.5
2019-01-14 02:50,50.630445,-96.9807666666667,3.6,5.5,325,996.55,-6.0,87,0.76,0.0,1025.29,345.5
2019-01-14 03:00,50.6304483333333,-96.9807666666667,3.7,5.6,327,996.58,-6.1,87,0.76,0.0,1025.32,347.4
2019-01-14 03:10,50.6304466666667,-96.9807683333333,3.8,5.3,341,996.54,-6.0,87,0.76,0.0,1025.28,347.4
2019-01-14 03:20,50.6304483333333,-96.9807683333333,4.1,5.6,320,996.71,-6.1,87,0.76,0.0,1025.48,347.4
2019-01-14 03:30,50.6304483333333,-96.98077,3.5,5.0,324,996.66,-6.1,87,0.77,0.0,1025.42,347.4
2019-01-14 03:40,50.6304483333333,-96.98077,3.3,4.8,331,996.67,-6.1,87,0.77,0.0,1025.42,347.4
2019-01-14 03:50,50.6304483333333,-96.98077,3.8,5.1,324,996.77,-6.1,87,0.77,0.0,1025.52,347.4
2019-01-14 04:00,50.6304483333333,-96.98077,4.8,6.6,329,996.89,-6.2,87,0.77,0.0,1025.65,192.6
2019-01-14 04:10,50.6304483333333,-96.98077,5.6,7.8,339,996.89,-6.2,87,0.77,0.0,1025.65,192.6
2019-01-14 04:20,50.6304483333333,-96.9807666666667,7.1,10.3,350,996.96,-6.2,88,0.77,0.0,1025.73,192.6
2019-01-14 04:30,50.63046,-96.9807733333333,7.8,11.6,344,997.02,-6.4,88,0.77,0.0,1025.80,192.6
2019-01-14 04:40,50.6304566666667,-96.98077,8.3,11.9,342,997.10,-6.5,89,0.78,0.0,1025.90,192.6
2019-01-14 04:50,50.6304516666667,-96.9807666666667,8.3,11.6,346,997.19,-6.7,91,0.78,0.0,1026.00,192.6
2019-01-14 05:00,50.6304466666667,-96.98078,8.8,12.0,348,997.26,-6.8,94,0.78,0.0,1026.08,248.5
2019-01-14 05:10,50.6304483333333,-96.9807516666667,9.0,12.1,355,997.26,-6.9,99,0.78,0.0,1026.08,248.5
2019-01-14 05:20,50.630445,-96.9807533333333,8.4,13.3,349,997.44,-7.0,99,0.78,0.0,1026.28,248.5
2019-01-14 05:30,50.630445,-96.9807533333333,9.8,12.8,345,997.48,-7.1,99,0.78,0.0,1026.32,248.5
2019-01-14 05:40,50.630445,-96.980755,7.2,9.9,345,997.60,-7.1,99,0.78,0.0,1026.45,248.5
2019-01-14 05:50,50.6304433333333,-96.9807566666667,8.5,13.8,350,997.58,-7.2,99,0.78,0.0,1026.44,248.5
2019-01-14 06:00,50.630445,-96.9807566666667,9.8,12.6,345,997.63,-7.3,99,0.78,0.0,1026.50,167.4
2019-01-14 06:10,50.6304433333333,-96.9807783333333,8.4,10.7,344,997.67,-7.5,99,0.78,0.0,1026.54,167.4
2019-01-14 06:20,50.630455,-96.9807533333333,9.1,13.0,348,997.77,-7.6,99,0.78,0.0,1026.66,167.4
2019-01-14 06:30,50.6304466666667,-96.980775,9.4,12.5,345,997.83,-7.7,99,0.78,0.0,1026.74,167.4
2019-01-14 06:40,50.630455,-96.98078,9.3,11.7,352,997.88,-7.8,99,0.78,0.0,1026.80,167.4
2019-01-14 06:50,50.630445,-96.9807616666667,9.6,11.8,359,997.88,-8.0,99,0.92,0.0,1026.82,167.4
2019-01-14 07:00,50.6304433333333,-96.98076,9.9,12.5,1,997.87,-8.0,99,0.78,0.0,1026.82,167.4
2019-01-14 07:10,50.630445,-96.9807583333333,11.3,14.7,1,997.82,-8.2,99,0.78,0.0,1026.78,167.4
2019-01-14 07:20,50.6304433333333,-96.98076,11.6,14.4,2,997.96,-8.4,99,0.77,0.0,1026.94,167.4
2019-01-14 07:30,50.630435,-96.9807616666667,11.3,14.4,358,998.10,-8.5,99,0.78,0.0,1027.09,167.4
2019-01-14 07:40,50.630445,-96.980775,11.4,15.4,359,998.16,-8.7,99,0.78,0.0,1027.16,167.4
2019-01-14 07:50,50.6304466666667,-96.9807716666667,13.2,16.5,358,998.25,-8.9,99,0.78,0.0,1027.28,167.4
2019-01-14 08:00,50.63045,-96.9807866666667,12.0,15.0,358,998.40,-9.0,99,0.78,0.0,1027.45,347.4
2019-01-14 08:10,50.6304483333333,-96.9807733333333,10.9,14.1,1,998.55,-9.2,99,0.77,0.0,1027.62,347.4
2019-01-14 08:20,50.63045,-96.98077,10.7,13.2,3,998.71,-9.3,99,0.77,0.0,1027.79,347.4
2019-01-14 08:30,50.6304483333333,-96.9807716666667,10.9,13.9,360,998.83,-9.3,99,0.77,0.0,1027.93,347.4
2019-01-14 08:40,50.6304483333333,-96.9807716666667,8.8,12.3,341,999.03,-9.4,99,0.77,0.0,1028.15,347.4
2019-01-14 08:50,50.63044,-96.9807733333333,10.2,14.1,349,999.08,-9.6,99,0.77,0.0,1028.21,347.4
2019-01-14 09:00,50.6304466666667,-96.9807733333333,9.1,11.9,342,999.15,-9.7,99,0.77,0.0,1028.30,305.3
2019-01-14 09:10,50.6304483333333,-96.9807683333333,8.4,12.0,339,999.21,-9.9,99,0.77,0.0,1028.39,305.3
2019-01-14 09:20,50.6304566666667,-96.9807633333333,9.9,12.2,343,999.29,-10.0,99,0.77,0.0,1028.48,305.3
2019-01-14 09:30,50.6304466666667,-96.98076,8.9,12.0,337,999.34,-10.2,99,0.77,0.0,1028.55,305.3
2019-01-14 09:40,50.63043,-96.9807616666667,9.3,12.3,346,999.34,-10.2,99,0.77,0.0,1028.56,305.3
2019-01-14 09:50,50.6304383333333,-96.9807583333333,10.9,14.1,358,999.42,-10.2,99,0.77,0.0,1028.66,305.3
2019-01-14 10:00,50.6304433333333,-96.9807666666667,9.2,11.8,354,999.55,-10.2,99,0.77,0.0,1028.80,270.0
2019-01-14 10:10,50.6304433333333,-96.98077,9.4,12.3,352,999.60,-10.2,99,0.76,0.0,1028.85,270.0
2019-01-14 10:20,50.6304416666667,-96.9807716666667,9.7,13.9,342,999.52,-10.3,99,0.76,0.0,1028.78,270.0
2019-01-14 10:30,50.6304466666667,-96.9807783333333,10.1,13.4,351,999.56,-10.3,99,0.76,0.0,1028.82,270.0
2019-01-14 10:40,50.6304466666667,-96.9807783333333,8.3,12.0,349,999.70,-10.3,99,0.76,0.0,1028.98,270.0
2019-01-14 10:50,50.63045,-96.9807683333333,8.3,11.8,348,999.72,-10.3,99,0.76,0.0,1029.01,270.0
2019-01-14 11:00,50.6304483333333,-96.9807633333333,7.7,11.0,339,999.72,-10.4,99,0.75,0.0,1029.03,107.7
2019-01-14 11:10,50.63044,-96.9807733333333,7.0,10.1,339,999.72,-10.4,99,0.75,0.0,1029.02,107.7
2019-01-14 11:20,50.6304483333333,-96.9807833333333,6.9,9.7,338,999.78,-10.4,99,0.75,0.0,1029.09,107.7
2019-01-14 11:30,50.63045,-96.98078,5.7,9.3,327,999.76,-10.4,99,0.75,0.0,1029.08,107.7
2019-01-14 11:40,50.6304466666667,-96.98078,5.5,7.7,327,999.71,-10.3,99,0.74,0.0,1029.03,107.7
2019-01-14 11:50,50.6304466666667,-96.98078,5.3,8.1,324,999.69,-10.3,99,0.74,0.0,1029.01,107.7
2019-01-14 12:00,50.6304416666667,-96.9807783333333,5.9,8.7,336,999.56,-10.3,99,0.74,0.0,1028.87,234.7
2019-01-14 12:10,50.6304416666667,-96.9807716666667,7.2,11.1,338,999.77,-10.2,99,0.74,0.0,1029.08,234.7
2019-01-14 12:20,50.630445,-96.9807716666667,8.1,11.7,342,999.90,-10.2,99,0.74,0.0,1029.22,234.7
2019-01-14 12:30,50.6304466666667,-96.9807716666667,9.0,11.8,343,999.90,-10.2,99,0.74,0.0,1029.22,234.7
2019-01-14 12:40,50.6304483333333,-96.9807716666667,8.9,12.2,336,999.99,-10.3,99,0.74,0.0,1029.32,234.7
2019-01-14 12:50,50.6304483333333,-96.98077,7.2,11.0,331,1000.02,-10.4,99,0.74,0.0,1029.35,234.7
2019-01-14 13:00,50.6304466666667,-96.9807716666667,4.7,7.2,315,999.97,-10.5,99,0.74,0.0,1029.31,347.4
2019-01-14 13:10,50.6304333333333,-96.98078,3.6,7.3,313,999.87,-10.6,99,0.74,0.0,1029.21,347.4
2019-01-14 13:20,50.6304316666667,-96.98076,2.6,3.8,302,999.76,-10.7,99,0.74,0.0,1029.10,347.4
2019-01-14 13:30,50.630435,-96.98078,2.7,4.3,298,999.67,-10.7,99,0.74,0.0,1029.01,347.4
2019-01-14 13:40,50.6304333333333,-96.9807816666667,3.1,4.3,291,999.72,-10.7,99,0.74,0.0,1029.06,347.4
2019-01-14 13:50,50.6304366666667,-96.9807816666667,2.7,4.0,314,999.60,-10.6,99,0.74,0.0,1028.93,347.4
2019-01-14 14:00,50.6304383333333,-96.98078,3.0,4.0,310,999.58,-10.6,99,0.72,0.0,1028.90,248.5
2019-01-14 14:10,50.6304383333333,-96.9807783333333,3.4,5.1,307,999.59,-10.6,99,0.72,0.0,1028.91,248.5
2019-01-14 14:20,50.6304466666667,-96.9807766666667,3.9,5.4,312,999.73,-10.5,99,0.72,0.0,1029.06,248.5
2019-01-14 14:30,50.630445,-96.9807716666667,4.4,5.8,312,999.91,-10.5,99,0.72,0.0,1029.25,248.5
2019-01-14 14:40,50.630445,-96.9807716666667,4.2,6.4,310,999.88,-10.5,99,0.72,0.0,1029.22,248.5
2019-01-14 14:50,50.6304566666667,-96.98077,4.6,6.4,315,999.94,-10.5,99,0.73,0.0,1029.28,248.5
2019-01-14 15:00,50.6304566666667,-96.9807633333333,3.5,5.2,321,999.91,-10.4,99,0.73,0.0,1029.26,49.4
2019-01-14 15:10,50.63045,-96.980765,3.9,6.3,315,999.97,-10.4,99,0.73,0.0,1029.32,49.4
2019-01-14 15:20,50.6304366666667,-96.9807716666667,3.9,6.1,308,1000.06,-10.3,99,0.73,0.0,1029.41,49.4
2019-01-14 15:30,50.630445,-96.9807666666667,3.5,5.5,293,1000.10,-10.2,99,0.72,0.0,1029.44,49.4
2019-01-14 15:40,50.6304483333333,-96.98077,2.9,4.6,299,1000.08,-10.2,99,0.72,0.0,1029.42,49.4
2019-01-14 15:50,50.6304466666667,-96.9807666666667,3.2,5.2,291,1000.12,-10.1,99,0.72,0.0,1029.45,49.4
2019-01-14 16:00,50.63045,-96.9807666666667,4.1,5.9,317,1000.25,-10.1,99,0.72,0.0,1029.59,12.6
2019-01-14 16:10,50.6304483333333,-96.9807666666667,4.1,5.7,328,1000.32,-9.9,99,0.72,0.0,1029.65,12.6
2019-01-14 16:20,50.6304483333333,-96.9807666666667,5.1,7.9,334,1000.35,-9.6,99,0.72,0.0,1029.66,12.6
2019-01-14 16:30,50.6304483333333,-96.9807666666667,5.3,9.7,342,1000.41,-9.2,99,0.72,0.0,1029.70,12.6
2019-01-14 16:40,50.63045,-96.9807666666667,6.8,9.5,357,1000.43,-9.1,99,0.72,0.0,1029.71,12.6
2019-01-14 16:50,50.63045,-96.980765,6.2,8.2,5,1000.39,-9.1,99,0.72,0.0,1029.66,12.6
2019-01-14 17:00,50.63045,-96.980765,5.9,9.9,1,1000.40,-9.1,99,0.72,0.0,1029.67,49.4
2019-01-14 17:10,50.63045,-96.980765,6.5,9.9,353,1000.32,-9.2,99,0.72,0.0,1029.60,49.4
2019-01-14 17:20,50.630435,-96.9807733333333,5.6,8.6,358,1000.23,-9.3,99,0.72,0.0,1029.50,49.4
2019-01-14 17:30,50.630445,-96.9807583333333,4.2,7.1,8,1000.14,-9.2,99,0.72,0.0,1029.40,49.4
2019-01-14 17:40,50.6304533333333,-96.9807633333333,5.1,7.9,13,1000.10,-9.1,99,0.71,0.0,1029.34,49.4
2019-01-14 17:50,50.6304516666667,-96.9807633333333,3.0,5.2,8,999.94,-8.9,99,0.71,0.0,1029.17,49.4
2019-01-14 18:00,50.6304216666667,-96.98078,3.6,5.0,25,999.90,-8.9,99,0.71,0.0,1029.12,207.9
2019-01-14 18:10,50.6304433333333,-96.9807733333333,2.1,5.3,356,999.96,-8.9,99,0.71,0.0,1029.17,207.9
2019-01-14 18:20,50.6304483333333,-96.980775,3.6,6.0,291,999.78,-9.0,99,0.71,0.0,1028.96,207.9
2019-01-14 18:30,50.63045,-96.9807766666667,3.3,5.7,262,999.51,-8.8,98,0.71,0.0,1028.67,207.9
2019-01-14 18:40,50.6304516666667,-96.9807766666667,2.4,4.0,273,999.34,-8.6,97,0.72,0.0,1028.48,207.9
2019-01-14 18:50,50.6304483333333,-96.9807766666667,0.8,3.5,289,999.20,-8.0,91,0.72,0.0,1028.30,207.9
2019-01-14 19:00,50.63045,-96.9807766666667,1.1,2.2,199,999.04,-8.3,92,0.72,0.0,1028.16,270.0
2019-01-14 19:10,50.6304483333333,-96.9807766666667,1.1,2.4,169,998.90,-8.0,91,0.72,0.0,1028.00,270.0
2019-01-14 19:20,50.6304483333333,-96.9807766666667,1.6,3.1,81,998.73,-6.4,84,0.73,0.0,1027.74,270.0
2019-01-14 19:30,50.6304466666667,-96.9807783333333,0.8,2.4,135,998.54,-6.3,82,0.72,0.0,1027.53,270.0
2019-01-14 19:40,50.6304466666667,-96.9807783333333,2.5,3.8,156,998.43,-7.3,86,0.72,0.0,1027.46,270.0
2019-01-14 19:50,50.6304466666667,-96.9807783333333,2.9,3.6,163,998.43,-8.2,90,0.72,0.0,1027.51,270.0
2019-01-14 20:00,50.6304483333333,-96.9807766666667,3.0,4.4,190,998.34,-8.3,89,0.73,0.0,1027.43,192.6
2019-01-14 20:10,50.6304483333333,-96.9807766666667,2.9,4.0,192,998.43,-8.1,85,0.73,0.0,1027.51,192.6
2019-01-14 20:20,50.6304483333333,-96.9807766666667,3.4,5.3,131,998.58,-7.8,92,0.73,0.0,1027.64,192.6
2019-01-14 20:30,50.6304483333333,-96.9807766666667,3.1,4.4,113,998.71,-7.7,95,0.74,0.0,1027.75,192.6
2019-01-14 20:40,50.6304466666667,-96.9807783333333,3.5,4.3,96,998.78,-7.1,90,0.74,0.0,1027.76,192.6
2019-01-14 20:50,50.6304483333333,-96.9807783333333,4.4,6.1,109,998.64,-6.9,90,0.74,0.0,1027.62,192.6
2019-01-14 21:00,50.6304466666667,-96.9807783333333,5.9,7.1,130,998.33,-8.5,98,0.74,0.0,1027.38,9.8
2019-01-14 21:10,50.6304466666667,-96.9807783333333,5.3,7.2,133,998.41,-9.1,99,0.75,0.0,1027.40,9.8
2019-01-14 21:20,50.6304633333333,-96.980795,6.1,7.2,147,998.40,-9.5,99,0.74,0.0,1027.41,9.8
2019-01-14 21:30,50.6304466666667,-96.980775,6.6,7.9,151,998.19,-9.8,99,0.73,0.0,1027.26,9.8
2019-01-14 21:40,50.630445,-96.98077,7.1,8.6,182,997.95,-9.4,99,0.74,0.0,1027.05,9.8
2019-01-14 21:50,50.6304466666667,-96.9807733333333,7.2,8.8,184,997.74,-9.4,99,0.74,0.0,1026.84,9.8
2019-01-14 22:00,50.6304183333333,-96.98076,7.5,9.1,181,997.54,-9.5,99,0.74,0.0,1026.63,360.0
2019-01-14 22:10,50.63043,-96.98076,7.3,9.1,185,997.44,-9.7,99,0.74,0.0,1026.51,360.0
2019-01-14 22:20,50.6304316666667,-96.9807666666667,7.7,9.5,185,997.20,-9.9,99,0.74,0.0,1026.27,360.0
2019-01-14 22:30,50.630445,-96.9807983333333,7.8,9.4,181,996.99,-10.0,99,0.75,0.0,1026.03,360.0
2019-01-14 22:40,50.630445,-96.9807733333333,7.6,9.8,177,996.74,-10.1,99,0.75,0.0,1025.77,360.0
2019-01-14 22:50,50.63044,-96.9807733333333,6.4,8.5,178,996.62,-10.0,99,0.75,0.0,1025.72,360.0
2019-01-14 23:00,50.6304383333333,-96.980775,4.7,6.3,181,996.54,-9.9,99,0.75,0.0,1025.68,142.0
2019-01-14 23:10,50.6304416666667,-96.980775,4.9,7.6,164,996.26,-9.9,99,0.75,0.0,1025.41,142.0
2019-01-14 23:20,50.6304416666667,-96.9807733333333,7.5,8.7,173,995.97,-10.0,99,0.75,0.0,1025.12,142.0
2019-01-14 23:30,50.6304433333333,-96.9807733333333,8.2,9.8,167,995.60,-10.0,99,0.75,0.0,1024.73,142.0
2019-01-14 23:40,50.630445,-96.9807733333333,8.7,11.0,161,995.32,-10.1,99,0.75,0.0,1024.45,142.0
2019-01-14 23:50,50.630445,-96.9807733333333,10.5,12.4,163,995.01,-10.2,99,0.75,0.0,1024.14,142.0
